Time,TemperatureF,DewpointF,PressureIn,WindDirection,WindDirectionDegrees,WindSpeedMPH,WindSpeedGustMPH,Humidity,HourlyPrecipIn,Conditions,Clouds,dailyrainin,SolarRadiationWatts/m^2,SoftwareType,DateUTC
2013-04-15 00:03:00,40.0,40.0,-100.00,WSW,238,25.0,41.0,99,0.00,,,0.03,0.000000,,2013-04-15 04:03:00,
2013-04-15 00:23:00,40.0,40.0,-100.00,WSW,238,25.0,41.0,99,0.00,,,0.03,0.000000,,2013-04-15 04:23:00,
2013-04-15 00:33:00,40.0,40.0,-100.00,WSW,238,25.0,41.0,99,0.00,,,0.03,0.000000,,2013-04-15 04:33:00,
2013-04-15 00:43:00,40.0,40.0,-100.00,WSW,238,25.0,41.0,99,0.00,,,0.03,0.000000,,2013-04-15 04:43:00,
2013-04-15 00:53:00,40.0,40.0,-100.00,WSW,238,25.0,41.0,99,0.00,,,0.03,0.000000,,2013-04-15 04:53:00,
2013-04-15 01:33:00,41.0,41.0,-100.00,SW,235,22.0,36.0,99,0.00,,,0.03,0.000000,,2013-04-15 05:33:00,
2013-04-15 01:43:00,41.0,41.0,-100.00,SW,235,22.0,36.0,99,0.00,,,0.03,0.000000,,2013-04-15 05:43:00,
2013-04-15 01:53:00,41.0,41.0,-100.00,SW,235,22.0,36.0,99,0.00,,,0.03,0.000000,,2013-04-15 05:53:00,
2013-04-15 02:02:00,41.0,41.0,-100.00,SW,235,22.0,36.0,99,0.00,,,0.03,0.000000,,2013-04-15 06:02:00,
2013-04-15 02:03:00,41.0,41.0,-100.00,WSW,242,24.0,30.0,99,0.01,,,0.04,0.000000,,2013-04-15 06:03:00,
2013-04-15 02:23:00,41.0,41.0,-100.00,WSW,242,24.0,30.0,99,0.01,,,0.04,0.000000,,2013-04-15 06:23:00,
2013-04-15 02:34:00,41.0,41.0,-100.00,WSW,242,24.0,30.0,99,0.01,,,0.04,0.000000,,2013-04-15 06:34:00,
2013-04-15 02:43:00,41.0,41.0,-100.00,WSW,242,24.0,30.0,99,0.01,,,0.04,0.000000,,2013-04-15 06:43:00,
2013-04-15 02:53:00,41.0,41.0,-100.00,WSW,242,24.0,30.0,99,0.01,,,0.04,0.000000,,2013-04-15 06:53:00,
2013-04-15 03:03:00,42.0,42.0,-100.00,WSW,247,20.0,32.0,99,0.01,,,0.05,0.000000,,2013-04-15 07:03:00,
2013-04-15 03:42:00,42.0,42.0,-100.00,WSW,247,20.0,32.0,99,0.01,,,0.05,0.000000,,2013-04-15 07:42:00,
2013-04-15 03:54:00,42.0,42.0,-100.00,WSW,247,20.0,32.0,99,0.01,,,0.05,0.000000,,2013-04-15 07:54:00,
2013-04-15 04:03:00,43.0,43.0,-100.00,West,261,11.0,22.0,100,0.00,,,0.05,0.000000,,2013-04-15 08:03:00,
2013-04-15 04:34:00,43.0,43.0,-100.00,West,261,11.0,22.0,100,0.00,,,0.05,0.000000,,2013-04-15 08:34:00,
2013-04-15 04:43:00,43.0,43.0,-100.00,West,261,11.0,22.0,100,0.00,,,0.05,0.000000,,2013-04-15 08:43:00,
2013-04-15 04:52:00,43.0,43.0,-100.00,West,261,11.0,22.0,100,0.00,,,0.05,0.000000,,2013-04-15 08:52:00,
2013-04-15 05:03:00,43.0,43.0,-100.00,WSW,252,15.0,24.0,100,0.00,,,0.05,0.000000,,2013-04-15 09:03:00,
2013-04-15 05:23:00,43.0,43.0,-100.00,WSW,252,15.0,24.0,100,0.00,,,0.05,0.000000,,2013-04-15 09:23:00,
2013-04-15 05:33:00,43.0,43.0,-100.00,WSW,252,15.0,24.0,100,0.00,,,0.05,0.000000,,2013-04-15 09:33:00,
2013-04-15 05:43:00,43.0,43.0,-100.00,WSW,252,15.0,24.0,100,0.00,,,0.05,0.000000,,2013-04-15 09:43:00,
2013-04-15 05:53:00,43.0,43.0,-100.00,WSW,252,15.0,24.0,100,0.00,,,0.05,0.000000,,2013-04-15 09:53:00,
2013-04-15 06:03:00,44.0,44.0,-100.00,West,261,12.0,19.0,100,0.00,,,0.05,0.000000,,2013-04-15 10:03:00,
2013-04-15 06:33:00,44.0,44.0,-100.00,West,261,12.0,19.0,100,0.00,,,0.05,0.000000,,2013-04-15 10:33:00,
2013-04-15 06:42:00,44.0,44.0,-100.00,West,261,12.0,19.0,100,0.00,,,0.05,0.000000,,2013-04-15 10:42:00,
2013-04-15 06:53:00,44.0,44.0,-100.00,West,261,12.0,19.0,100,0.00,,,0.05,0.000000,,2013-04-15 10:53:00,
2013-04-15 07:03:00,44.0,44.0,-100.00,West,272,13.0,19.0,100,0.00,,,0.05,0.000000,,2013-04-15 11:03:00,
2013-04-15 07:23:00,44.0,44.0,-100.00,West,272,13.0,19.0,100,0.00,,,0.05,0.000000,,2013-04-15 11:23:00,
2013-04-15 07:33:00,44.0,44.0,-100.00,West,272,13.0,19.0,100,0.00,,,0.05,0.000000,,2013-04-15 11:33:00,
2013-04-15 07:54:00,44.0,44.0,-100.00,West,272,13.0,19.0,100,0.00,,,0.05,0.000000,,2013-04-15 11:54:00,
2013-04-15 08:03:00,44.0,44.0,-100.00,NW,309,12.0,19.0,100,0.01,,,0.06,21.000000,,2013-04-15 12:03:00,
2013-04-15 08:34:00,44.0,44.0,-100.00,NW,309,12.0,19.0,100,0.01,,,0.06,21.000000,,2013-04-15 12:34:00,
2013-04-15 08:43:00,44.0,44.0,-100.00,NW,309,12.0,19.0,100,0.01,,,0.06,21.000000,,2013-04-15 12:43:00,
2013-04-15 08:53:00,44.0,44.0,-100.00,NW,309,12.0,19.0,100,0.01,,,0.06,21.000000,,2013-04-15 12:53:00,
2013-04-15 09:03:00,45.0,45.0,-100.00,WNW,293,9.0,18.0,99,0.00,,,0.06,85.000000,,2013-04-15 13:03:00,
2013-04-15 09:34:00,45.0,45.0,-100.00,WNW,293,9.0,18.0,99,0.00,,,0.06,85.000000,,2013-04-15 13:34:00,
2013-04-15 09:43:00,45.0,45.0,-100.00,WNW,293,9.0,18.0,99,0.00,,,0.06,85.000000,,2013-04-15 13:43:00,
2013-04-15 09:54:00,45.0,45.0,-100.00,WNW,293,9.0,18.0,99,0.00,,,0.06,85.000000,,2013-04-15 13:54:00,
2013-04-15 10:03:00,47.0,47.0,-100.00,NW,305,4.0,15.0,99,0.00,,,0.06,184.000000,,2013-04-15 14:03:00,
2013-04-15 10:23:00,47.0,47.0,-100.00,NW,305,4.0,15.0,99,0.00,,,0.06,184.000000,,2013-04-15 14:23:00,
2013-04-15 10:34:00,47.0,47.0,-100.00,NW,305,4.0,15.0,99,0.00,,,0.06,184.000000,,2013-04-15 14:34:00,
2013-04-15 10:44:00,47.0,47.0,-100.00,NW,305,4.0,15.0,99,0.00,,,0.06,184.000000,,2013-04-15 14:44:00,
2013-04-15 10:55:00,47.0,47.0,-100.00,NW,305,4.0,15.0,99,0.00,,,0.06,184.000000,,2013-04-15 14:55:00,
2013-04-15 11:03:00,49.0,48.0,-100.00,WNW,301,2.0,7.0,98,0.00,,,0.06,349.000000,,2013-04-15 15:03:00,
2013-04-15 11:37:00,49.0,48.0,-100.00,WNW,301,2.0,7.0,98,0.00,,,0.06,349.000000,,2013-04-15 15:37:00,
2013-04-15 11:45:00,49.0,48.0,-100.00,WNW,301,2.0,7.0,98,0.00,,,0.06,349.000000,,2013-04-15 15:45:00,
2013-04-15 11:55:00,49.0,48.0,-100.00,WNW,301,2.0,7.0,98,0.00,,,0.06,349.000000,,2013-04-15 15:55:00,
2013-04-15 12:03:00,52.0,51.0,-100.00,NNW,339,3.0,6.0,97,0.00,,,0.06,453.000000,,2013-04-15 16:03:00,
2013-04-15 12:25:00,52.0,51.0,-100.00,NNW,339,3.0,6.0,97,0.00,,,0.06,453.000000,,2013-04-15 16:25:00,
2013-04-15 12:34:00,52.0,51.0,-100.00,NNW,339,3.0,6.0,97,0.00,,,0.06,453.000000,,2013-04-15 16:34:00,
2013-04-15 12:44:00,52.0,51.0,-100.00,NNW,339,3.0,6.0,97,0.00,,,0.06,453.000000,,2013-04-15 16:44:00,
2013-04-15 12:54:00,52.0,51.0,-100.00,NNW,339,3.0,6.0,97,0.00,,,0.06,453.000000,,2013-04-15 16:54:00,
2013-04-15 13:03:00,55.0,53.0,-100.00,West,275,3.0,7.0,93,0.00,,,0.06,467.000000,,2013-04-15 17:03:00,
2013-04-15 13:33:00,55.0,53.0,-100.00,West,275,3.0,7.0,93,0.00,,,0.06,467.000000,,2013-04-15 17:33:00,
2013-04-15 13:43:00,55.0,53.0,-100.00,West,275,3.0,7.0,93,0.00,,,0.06,467.000000,,2013-04-15 17:43:00,
2013-04-15 13:53:00,55.0,53.0,-100.00,West,275,3.0,7.0,93,0.00,,,0.06,467.000000,,2013-04-15 17:53:00,
2013-04-15 14:24:00,59.0,53.0,-100.00,SW,227,4.0,8.0,81,0.00,,,0.06,589.000000,,2013-04-15 18:24:00,
2013-04-15 14:33:00,59.0,53.0,-100.00,SW,227,4.0,8.0,81,0.00,,,0.06,589.000000,,2013-04-15 18:33:00,
2013-04-15 14:42:00,59.0,53.0,-100.00,SW,227,4.0,8.0,81,0.00,,,0.06,589.000000,,2013-04-15 18:42:00,
2013-04-15 14:52:00,59.0,53.0,-100.00,SW,227,4.0,8.0,81,0.00,,,0.06,589.000000,,2013-04-15 18:52:00,
2013-04-15 15:02:00,59.0,53.0,-100.00,SW,227,4.0,8.0,81,0.00,,,0.06,589.000000,,2013-04-15 19:02:00,
2013-04-15 15:22:00,61.0,49.0,-100.00,SW,231,4.0,11.0,64,0.00,,,0.06,875.000000,,2013-04-15 19:22:00,
2013-04-15 15:39:00,61.0,49.0,-100.00,SW,231,4.0,11.0,64,0.00,,,0.06,875.000000,,2013-04-15 19:39:00,
2013-04-15 15:59:00,61.0,49.0,-100.00,SW,231,4.0,11.0,64,0.00,,,0.06,875.000000,,2013-04-15 19:59:00,
2013-04-15 16:02:00,61.0,49.0,-100.00,SW,231,4.0,11.0,64,0.00,,,0.06,875.000000,,2013-04-15 20:02:00,
2013-04-15 16:32:00,62.0,49.0,-100.00,SW,219,7.0,12.0,63,0.00,,,0.06,905.000000,,2013-04-15 20:32:00,
2013-04-15 16:42:00,62.0,49.0,-100.00,SW,219,7.0,12.0,63,0.00,,,0.06,905.000000,,2013-04-15 20:42:00,
2013-04-15 16:52:00,62.0,49.0,-100.00,SW,219,7.0,12.0,63,0.00,,,0.06,905.000000,,2013-04-15 20:52:00,
2013-04-15 17:02:00,62.0,49.0,-100.00,SW,219,7.0,12.0,63,0.00,,,0.06,905.000000,,2013-04-15 21:02:00,
2013-04-15 17:33:00,59.0,50.0,-100.00,South,191,8.0,14.0,71,0.00,,,0.06,701.000000,,2013-04-15 21:33:00,
2013-04-15 17:43:00,59.0,50.0,-100.00,South,191,8.0,14.0,71,0.00,,,0.06,701.000000,,2013-04-15 21:43:00,
2013-04-15 17:53:00,59.0,50.0,-100.00,South,191,8.0,14.0,71,0.00,,,0.06,701.000000,,2013-04-15 21:53:00,
2013-04-15 18:02:00,59.0,50.0,-100.00,South,191,8.0,14.0,71,0.00,,,0.06,701.000000,,2013-04-15 22:02:00,
2013-04-15 18:33:00,55.0,50.0,-100.00,SW,219,9.0,14.0,82,0.00,,,0.06,497.000000,,2013-04-15 22:33:00,
2013-04-15 18:42:00,55.0,50.0,-100.00,SW,219,9.0,14.0,82,0.00,,,0.06,497.000000,,2013-04-15 22:42:00,
2013-04-15 18:52:00,55.0,50.0,-100.00,SW,219,9.0,14.0,82,0.00,,,0.06,497.000000,,2013-04-15 22:52:00,
2013-04-15 19:02:00,55.0,50.0,-100.00,SW,219,9.0,14.0,82,0.00,,,0.06,497.000000,,2013-04-15 23:02:00,
2013-04-15 19:32:00,52.0,49.0,-100.00,SSW,201,12.0,17.0,88,0.00,,,0.06,364.000000,,2013-04-15 23:32:00,
2013-04-15 19:42:00,52.0,49.0,-100.00,SSW,201,12.0,17.0,88,0.00,,,0.06,364.000000,,2013-04-15 23:42:00,
2013-04-15 19:52:00,52.0,49.0,-100.00,SSW,201,12.0,17.0,88,0.00,,,0.06,364.000000,,2013-04-15 23:52:00,
2013-04-15 20:02:00,52.0,49.0,-100.00,SSW,201,12.0,17.0,88,0.00,,,0.06,364.000000,,2013-04-16 00:02:00,
2013-04-15 20:22:00,49.0,48.0,-100.00,SW,223,13.0,18.0,98,0.00,,,0.06,115.000000,,2013-04-16 00:22:00,
2013-04-15 20:32:00,49.0,48.0,-100.00,SW,223,13.0,18.0,98,0.00,,,0.06,115.000000,,2013-04-16 00:32:00,
2013-04-15 20:42:00,49.0,48.0,-100.00,SW,223,13.0,18.0,98,0.00,,,0.06,115.000000,,2013-04-16 00:42:00,
2013-04-15 20:52:00,49.0,48.0,-100.00,SW,223,13.0,18.0,98,0.00,,,0.06,115.000000,,2013-04-16 00:52:00,
2013-04-15 21:02:00,49.0,48.0,-100.00,SW,223,13.0,18.0,98,0.00,,,0.06,115.000000,,2013-04-16 01:02:00,
2013-04-15 21:22:00,48.0,48.0,-100.00,WSW,239,14.0,17.0,99,0.00,,,0.06,0.000000,,2013-04-16 01:22:00,
2013-04-15 21:32:00,48.0,48.0,-100.00,WSW,239,14.0,17.0,99,0.00,,,0.06,0.000000,,2013-04-16 01:32:00,
2013-04-15 21:42:00,48.0,48.0,-100.00,WSW,239,14.0,17.0,99,0.00,,,0.06,0.000000,,2013-04-16 01:42:00,
2013-04-15 21:52:00,48.0,48.0,-100.00,WSW,239,14.0,17.0,99,0.00,,,0.06,0.000000,,2013-04-16 01:52:00,
2013-04-15 22:02:00,48.0,48.0,-100.00,WSW,239,14.0,17.0,99,0.00,,,0.06,0.000000,,2013-04-16 02:02:00,
2013-04-15 22:32:00,48.0,48.0,-100.00,WSW,245,14.0,19.0,99,0.00,,,0.05,0.000000,,2013-04-16 02:32:00,
2013-04-15 22:42:00,48.0,48.0,-100.00,WSW,245,14.0,19.0,99,0.00,,,0.05,0.000000,,2013-04-16 02:42:00,
2013-04-15 22:52:00,48.0,48.0,-100.00,WSW,245,14.0,19.0,99,0.00,,,0.05,0.000000,,2013-04-16 02:52:00,
2013-04-15 23:02:00,48.0,48.0,-100.00,WSW,245,14.0,19.0,99,0.00,,,0.05,0.000000,,2013-04-16 03:02:00,
2013-04-15 23:03:00,48.0,48.0,-100.00,WSW,257,16.0,20.0,100,0.00,,,0.03,0.000000,,2013-04-16 03:03:00,
2013-04-15 23:33:00,48.0,48.0,-100.00,WSW,257,16.0,20.0,100,0.00,,,0.03,0.000000,,2013-04-16 03:33:00,
2013-04-15 23:43:00,48.0,48.0,-100.00,WSW,257,16.0,20.0,100,0.00,,,0.03,0.000000,,2013-04-16 03:43:00,
2013-04-15 23:53:00,48.0,48.0,-100.00,WSW,257,16.0,20.0,100,0.00,,,0.03,0.000000,,2013-04-16 03:53:00,